Year,Month,Day,Hour,Minute,Value (Times are PST for temperature in C)
2017,09,17,00,00,11.70
2017,09,17,00,01,11.70
2017,09,17,00,02,11.70
2017,09,17,00,03,11.80
2017,09,17,00,04,11.80
2017,09,17,00,05,11.80
2017,09,17,00,06,11.90
2017,09,17,00,07,11.90
2017,09,17,00,08,12.00
2017,09,17,00,09,12.00
2017,09,17,00,10,12.10
2017,09,17,00,11,12.20
2017,09,17,00,12,12.30
2017,09,17,00,13,12.30
2017,09,17,00,14,12.40
2017,09,17,00,15,12.50
2017,09,17,00,16,12.60
2017,09,17,00,17,12.60
2017,09,17,00,18,12.70
2017,09,17,00,19,12.70
2017,09,17,00,20,12.80
2017,09,17,00,21,12.80
2017,09,17,00,22,12.80
2017,09,17,00,23,12.90
2017,09,17,00,24,12.90
2017,09,17,00,25,12.90
2017,09,17,00,26,12.90
2017,09,17,00,27,12.90
2017,09,17,00,28,12.90
2017,09,17,00,29,12.90
2017,09,17,00,30,13.00
2017,09,17,00,31,13.10
2017,09,17,00,32,13.20
2017,09,17,00,33,13.30
2017,09,17,00,34,13.30
2017,09,17,00,35,13.30
2017,09,17,00,36,13.40
2017,09,17,00,37,13.40
2017,09,17,00,38,13.40
2017,09,17,00,39,13.40
2017,09,17,00,40,13.50
2017,09,17,00,41,13.50
2017,09,17,00,42,13.50
2017,09,17,00,43,13.40
2017,09,17,00,44,13.40
2017,09,17,00,45,13.40
2017,09,17,00,46,13.40
2017,09,17,00,47,13.40
2017,09,17,00,48,13.40
2017,09,17,00,49,13.30
2017,09,17,00,50,13.30
2017,09,17,00,51,13.30
2017,09,17,00,52,13.20
2017,09,17,00,53,13.20
2017,09,17,00,54,13.20
2017,09,17,00,55,13.10
2017,09,17,00,56,13.10
2017,09,17,00,57,13.10
2017,09,17,00,58,13.10
2017,09,17,00,59,13.00
2017,09,17,01,00,13.00
2017,09,17,01,01,13.00
2017,09,17,01,02,12.90
2017,09,17,01,03,12.90
2017,09,17,01,04,12.90
2017,09,17,01,05,12.80
2017,09,17,01,06,12.80
2017,09,17,01,07,12.80
2017,09,17,01,08,12.80
2017,09,17,01,09,12.80
2017,09,17,01,10,12.70
2017,09,17,01,11,12.70
2017,09,17,01,12,12.70
2017,09,17,01,13,12.70
2017,09,17,01,14,12.70
2017,09,17,01,15,12.60
2017,09,17,01,16,12.60
2017,09,17,01,17,12.60
2017,09,17,01,18,12.60
2017,09,17,01,19,12.70
2017,09,17,01,20,12.70
2017,09,17,01,21,12.70
2017,09,17,01,22,12.70
2017,09,17,01,23,12.70
2017,09,17,01,24,12.80
2017,09,17,01,25,12.80
2017,09,17,01,26,12.80
2017,09,17,01,27,12.80
2017,09,17,01,28,12.80
2017,09,17,01,29,12.80
2017,09,17,01,30,12.90
2017,09,17,01,31,12.90
2017,09,17,01,32,13.00
2017,09,17,01,33,13.00
2017,09,17,01,34,13.10
2017,09,17,01,35,13.10
2017,09,17,01,36,13.20
2017,09,17,01,37,13.20
2017,09,17,01,38,13.20
2017,09,17,01,39,13.20
2017,09,17,01,40,13.30
2017,09,17,01,41,13.30
2017,09,17,01,42,13.40
2017,09,17,01,43,13.40
2017,09,17,01,44,13.50
2017,09,17,01,45,13.60
2017,09,17,01,46,13.70
2017,09,17,01,47,13.70
2017,09,17,01,48,13.80
2017,09,17,01,49,13.80
2017,09,17,01,50,13.70
2017,09,17,01,51,13.70
2017,09,17,01,52,13.80
2017,09,17,01,53,13.80
2017,09,17,01,54,13.80
2017,09,17,01,55,13.80
2017,09,17,01,56,13.80
2017,09,17,01,57,13.80
2017,09,17,01,58,13.80
2017,09,17,01,59,13.80
2017,09,17,02,00,13.80
2017,09,17,02,01,13.80
2017,09,17,02,02,13.80
2017,09,17,02,03,13.70
2017,09,17,02,04,13.70
2017,09,17,02,05,13.70
2017,09,17,02,06,13.70
2017,09,17,02,07,13.60
2017,09,17,02,08,13.60
2017,09,17,02,09,13.60
2017,09,17,02,10,13.60
2017,09,17,02,11,13.60
2017,09,17,02,12,13.60
2017,09,17,02,13,13.70
2017,09,17,02,14,13.70
2017,09,17,02,15,13.80
2017,09,17,02,16,13.80
2017,09,17,02,17,13.90
2017,09,17,02,18,13.90
2017,09,17,02,19,14.00
2017,09,17,02,20,14.00
2017,09,17,02,21,14.00
2017,09,17,02,22,13.90
2017,09,17,02,23,13.90
2017,09,17,02,24,13.90
2017,09,17,02,25,13.80
2017,09,17,02,26,13.80
2017,09,17,02,27,13.70
2017,09,17,02,28,13.70
2017,09,17,02,29,13.70
2017,09,17,02,30,13.70
2017,09,17,02,31,13.70
2017,09,17,02,32,13.60
2017,09,17,02,33,13.60
2017,09,17,02,34,13.60
2017,09,17,02,35,13.60
2017,09,17,02,36,13.60
2017,09,17,02,37,13.60
2017,09,17,02,38,13.50
2017,09,17,02,39,13.50
2017,09,17,02,40,13.50
2017,09,17,02,41,13.50
2017,09,17,02,42,13.50
2017,09,17,02,43,13.50
2017,09,17,02,44,13.50
2017,09,17,02,45,13.50
2017,09,17,02,46,13.50
2017,09,17,02,47,13.50
2017,09,17,02,48,13.50
2017,09,17,02,49,13.50
2017,09,17,02,50,13.50
2017,09,17,02,51,13.40
2017,09,17,02,52,13.40
2017,09,17,02,53,13.40
2017,09,17,02,54,13.30
2017,09,17,02,55,13.30
2017,09,17,02,56,13.30
2017,09,17,02,57,13.30
2017,09,17,02,58,13.30
2017,09,17,02,59,13.20
2017,09,17,03,00,13.20
2017,09,17,03,01,13.20
2017,09,17,03,02,13.20
2017,09,17,03,03,13.20
2017,09,17,03,04,13.10
2017,09,17,03,05,13.10
2017,09,17,03,06,13.10
2017,09,17,03,07,13.10
2017,09,17,03,08,13.10
2017,09,17,03,09,13.10
2017,09,17,03,10,13.10
2017,09,17,03,11,13.10
2017,09,17,03,12,13.20
2017,09,17,03,13,13.20
2017,09,17,03,14,13.30
2017,09,17,03,15,13.30
2017,09,17,03,16,13.40
2017,09,17,03,17,13.40
2017,09,17,03,18,13.50
2017,09,17,03,19,13.50
2017,09,17,03,20,13.60
2017,09,17,03,21,13.70
2017,09,17,03,22,13.80
2017,09,17,03,23,13.90
2017,09,17,03,24,14.00
2017,09,17,03,25,14.00
2017,09,17,03,26,14.00
2017,09,17,03,27,14.00
2017,09,17,03,28,14.00
2017,09,17,03,29,14.00
2017,09,17,03,30,14.00
2017,09,17,03,31,13.90
2017,09,17,03,32,13.90
2017,09,17,03,33,13.90
2017,09,17,03,34,13.90
2017,09,17,03,35,13.90
2017,09,17,03,36,13.80
2017,09,17,03,37,13.80
2017,09,17,03,38,13.80
2017,09,17,03,39,13.70
2017,09,17,03,40,13.70
2017,09,17,03,41,13.60
2017,09,17,03,42,13.60
2017,09,17,03,43,13.60
2017,09,17,03,44,13.60
2017,09,17,03,45,13.60
2017,09,17,03,46,13.60
2017,09,17,03,47,13.60
2017,09,17,03,48,13.60
2017,09,17,03,49,13.60
2017,09,17,03,50,13.60
2017,09,17,03,51,13.70
2017,09,17,03,52,13.70
2017,09,17,03,53,13.70
2017,09,17,03,54,13.80
2017,09,17,03,55,13.90
2017,09,17,03,56,13.90
2017,09,17,03,57,14.00
2017,09,17,03,58,14.00
2017,09,17,03,59,14.10
2017,09,17,04,00,14.20
2017,09,17,04,01,14.20
2017,09,17,04,02,14.30
2017,09,17,04,03,14.30
2017,09,17,04,04,14.30
2017,09,17,04,05,14.30
2017,09,17,04,06,14.30
2017,09,17,04,07,14.30
2017,09,17,04,08,14.30
2017,09,17,04,09,14.30
2017,09,17,04,10,14.30
2017,09,17,04,11,14.30
2017,09,17,04,12,14.30
2017,09,17,04,13,14.30
2017,09,17,04,14,14.30
2017,09,17,04,15,14.30
2017,09,17,04,16,14.30
2017,09,17,04,17,14.20
2017,09,17,04,18,14.20
2017,09,17,04,19,14.20
2017,09,17,04,20,14.20
2017,09,17,04,21,14.20
2017,09,17,04,22,14.30
2017,09,17,04,23,14.40
2017,09,17,04,24,14.40
2017,09,17,04,25,14.50
2017,09,17,04,26,14.60
2017,09,17,04,27,14.60
2017,09,17,04,28,14.60
2017,09,17,04,29,14.70
2017,09,17,04,30,14.70
2017,09,17,04,31,14.70
2017,09,17,04,32,14.70
2017,09,17,04,33,14.70
2017,09,17,04,34,14.70
2017,09,17,04,35,14.70
2017,09,17,04,36,14.70
2017,09,17,04,37,14.80
2017,09,17,04,38,14.80
2017,09,17,04,39,14.90
2017,09,17,04,40,15.00
2017,09,17,04,41,15.00
2017,09,17,04,42,15.10
2017,09,17,04,43,15.10
2017,09,17,04,44,15.20
2017,09,17,04,45,15.30
2017,09,17,04,46,15.30
2017,09,17,04,47,15.40
2017,09,17,04,48,15.50
2017,09,17,04,49,15.60
2017,09,17,04,50,15.70
2017,09,17,04,51,15.70
2017,09,17,04,52,15.70
2017,09,17,04,53,15.80
2017,09,17,04,54,15.90
2017,09,17,04,55,16.00
2017,09,17,04,56,16.00
2017,09,17,04,57,16.10
2017,09,17,04,58,16.20
2017,09,17,04,59,16.40
2017,09,17,05,00,16.50
2017,09,17,05,01,16.60
2017,09,17,05,02,16.80
2017,09,17,05,03,16.90
2017,09,17,05,04,17.00
2017,09,17,05,05,17.10
2017,09,17,05,06,17.10
2017,09,17,05,07,17.20
2017,09,17,05,08,17.20
2017,09,17,05,09,17.30
2017,09,17,05,10,17.30
2017,09,17,05,11,17.30
2017,09,17,05,12,17.40
2017,09,17,05,13,17.40
2017,09,17,05,14,17.40
2017,09,17,05,15,17.50
2017,09,17,05,16,17.50
2017,09,17,05,17,17.50
2017,09,17,05,18,17.60
2017,09,17,05,19,17.60
2017,09,17,05,20,17.60
2017,09,17,05,21,17.60
2017,09,17,05,22,17.70
2017,09,17,05,23,17.70
2017,09,17,05,24,17.70
2017,09,17,05,25,17.70
2017,09,17,05,26,17.80
2017,09,17,05,27,17.80
2017,09,17,05,28,17.80
2017,09,17,05,29,17.90
2017,09,17,05,30,18.00
2017,09,17,05,31,18.00
2017,09,17,05,32,18.10
2017,09,17,05,33,18.10
2017,09,17,05,34,18.20
2017,09,17,05,35,18.20
2017,09,17,05,36,18.20
2017,09,17,05,37,18.30
2017,09,17,05,38,18.30
2017,09,17,05,39,18.40
2017,09,17,05,40,18.50
2017,09,17,05,41,18.50
2017,09,17,05,42,18.60
2017,09,17,05,43,18.60
2017,09,17,05,44,18.60
2017,09,17,05,45,18.60
2017,09,17,05,46,18.60
2017,09,17,05,47,18.60
2017,09,17,05,48,18.60
2017,09,17,05,49,18.70
2017,09,17,05,50,18.70
2017,09,17,05,51,18.70
2017,09,17,05,52,18.70
2017,09,17,05,53,18.80
2017,09,17,05,54,18.80
2017,09,17,05,55,18.80
2017,09,17,05,56,18.80
2017,09,17,05,57,18.80
2017,09,17,05,58,18.80
2017,09,17,05,59,18.80
2017,09,17,06,00,18.80
2017,09,17,06,01,18.80
2017,09,17,06,02,18.80
2017,09,17,06,03,18.80
2017,09,17,06,04,18.90
2017,09,17,06,05,18.90
2017,09,17,06,06,18.90
2017,09,17,06,07,18.80
2017,09,17,06,08,18.80
2017,09,17,06,09,18.80
2017,09,17,06,10,18.80
2017,09,17,06,11,18.80
2017,09,17,06,12,18.80
2017,09,17,06,13,18.80
2017,09,17,06,14,18.80
2017,09,17,06,15,18.80
2017,09,17,06,16,18.80
2017,09,17,06,17,18.80
2017,09,17,06,18,18.80
2017,09,17,06,19,18.70
2017,09,17,06,20,18.70
2017,09,17,06,21,18.70
2017,09,17,06,22,18.70
2017,09,17,06,23,18.70
2017,09,17,06,24,18.70
2017,09,17,06,25,18.70
2017,09,17,06,26,18.70
2017,09,17,06,27,18.70
2017,09,17,06,28,18.70
2017,09,17,06,29,18.70
2017,09,17,06,30,18.70
2017,09,17,06,31,18.60
2017,09,17,06,32,18.60
2017,09,17,06,33,18.60
2017,09,17,06,34,18.60
2017,09,17,06,35,18.60
2017,09,17,06,36,18.60
2017,09,17,06,37,18.60
2017,09,17,06,38,18.60
2017,09,17,06,39,18.60
2017,09,17,06,40,18.60
2017,09,17,06,41,18.60
2017,09,17,06,42,18.60
2017,09,17,06,43,18.70
2017,09,17,06,44,18.70
2017,09,17,06,45,18.70
2017,09,17,06,46,18.70
2017,09,17,06,47,18.60
2017,09,17,06,48,18.60
2017,09,17,06,49,18.60
2017,09,17,06,50,18.50
2017,09,17,06,51,18.50
2017,09,17,06,52,18.50
2017,09,17,06,53,18.40
2017,09,17,06,54,18.40
2017,09,17,06,55,18.30
2017,09,17,06,56,18.30
2017,09,17,06,57,18.30
2017,09,17,06,58,18.20
2017,09,17,06,59,18.20
2017,09,17,07,00,18.20
2017,09,17,07,01,18.10
2017,09,17,07,02,18.10
2017,09,17,07,03,18.10
2017,09,17,07,04,18.00
2017,09,17,07,05,18.00
2017,09,17,07,06,17.90
2017,09,17,07,07,17.90
2017,09,17,07,08,17.90
2017,09,17,07,09,17.80
2017,09,17,07,10,17.80
2017,09,17,07,11,17.80
2017,09,17,07,12,17.70
2017,09,17,07,13,17.70
2017,09,17,07,14,17.70
2017,09,17,07,15,17.70
2017,09,17,07,16,17.70
2017,09,17,07,17,17.70
2017,09,17,07,18,17.70
2017,09,17,07,19,17.60
2017,09,17,07,20,17.60
2017,09,17,07,21,17.60
2017,09,17,07,22,17.60
2017,09,17,07,23,17.50
2017,09,17,07,24,17.50
2017,09,17,07,25,17.40
2017,09,17,07,26,17.40
2017,09,17,07,27,17.40
2017,09,17,07,28,17.40
2017,09,17,07,29,17.30
2017,09,17,07,30,17.30
2017,09,17,07,31,17.30
2017,09,17,07,32,17.30
2017,09,17,07,33,17.20
2017,09,17,07,34,17.20
2017,09,17,07,35,17.20
2017,09,17,07,36,17.20
2017,09,17,07,37,17.10
2017,09,17,07,38,17.10
2017,09,17,07,39,17.10
2017,09,17,07,40,17.10
2017,09,17,07,41,17.10
2017,09,17,07,42,17.10
2017,09,17,07,43,17.10
2017,09,17,07,44,17.00
2017,09,17,07,45,17.00
2017,09,17,07,46,17.00
2017,09,17,07,47,17.00
2017,09,17,07,48,16.90
2017,09,17,07,49,16.90
2017,09,17,07,50,16.90
2017,09,17,07,51,16.90
2017,09,17,07,52,16.90
2017,09,17,07,53,16.80
2017,09,17,07,54,16.80
2017,09,17,07,55,16.80
2017,09,17,07,56,16.70
2017,09,17,07,57,16.70
2017,09,17,07,58,16.70
2017,09,17,07,59,16.60
2017,09,17,08,00,16.60
2017,09,17,08,01,16.50
2017,09,17,08,02,16.50
2017,09,17,08,03,16.40
2017,09,17,08,04,16.40
2017,09,17,08,05,16.30
2017,09,17,08,06,16.30
2017,09,17,08,07,16.30
2017,09,17,08,08,16.30
2017,09,17,08,09,16.20
2017,09,17,08,10,16.20
2017,09,17,08,11,16.20
2017,09,17,08,12,16.20
2017,09,17,08,13,16.20
2017,09,17,08,14,16.20
2017,09,17,08,15,16.20
2017,09,17,08,16,16.20
2017,09,17,08,17,16.20
2017,09,17,08,18,16.10
2017,09,17,08,19,16.10
2017,09,17,08,20,16.10
2017,09,17,08,21,16.10
2017,09,17,08,22,16.10
2017,09,17,08,23,16.10
2017,09,17,08,24,16.10
2017,09,17,08,25,16.10
2017,09,17,08,26,16.10
2017,09,17,08,27,16.10
2017,09,17,08,28,16.10
2017,09,17,08,29,16.10
2017,09,17,08,30,16.10
2017,09,17,08,31,16.10
2017,09,17,08,32,16.10
2017,09,17,08,33,16.10
2017,09,17,08,34,16.00
2017,09,17,08,35,16.00
2017,09,17,08,36,16.00
2017,09,17,08,37,16.00
2017,09,17,08,38,16.00
2017,09,17,08,39,15.90
2017,09,17,08,40,15.90
2017,09,17,08,41,15.90
2017,09,17,08,42,15.90
2017,09,17,08,43,15.90
2017,09,17,08,44,15.90
2017,09,17,08,45,15.90
2017,09,17,08,46,15.90
2017,09,17,08,47,15.90
2017,09,17,08,48,15.90
2017,09,17,08,49,15.90
2017,09,17,08,50,15.80
2017,09,17,08,51,15.90
2017,09,17,08,52,15.80
2017,09,17,08,53,15.90
2017,09,17,08,54,15.80
2017,09,17,08,55,15.90
2017,09,17,08,56,15.80
2017,09,17,08,57,15.80
2017,09,17,08,58,15.80
2017,09,17,08,59,15.80
2017,09,17,09,00,15.80
2017,09,17,09,01,15.80
2017,09,17,09,02,15.80
2017,09,17,09,03,15.80
2017,09,17,09,04,15.80
2017,09,17,09,05,15.80
2017,09,17,09,06,15.70
2017,09,17,09,07,15.60
2017,09,17,09,08,15.50
2017,09,17,09,09,15.50
2017,09,17,09,10,15.40
2017,09,17,09,11,15.30
2017,09,17,09,12,15.30
2017,09,17,09,13,15.20
2017,09,17,09,14,15.20
2017,09,17,09,15,15.10
2017,09,17,09,16,15.10
2017,09,17,09,17,15.10
2017,09,17,09,18,15.10
2017,09,17,09,19,15.00
2017,09,17,09,20,15.00
2017,09,17,09,21,15.00
2017,09,17,09,22,15.00
2017,09,17,09,23,15.00
2017,09,17,09,24,15.00
2017,09,17,09,25,15.00
2017,09,17,09,26,15.00
2017,09,17,09,27,15.00
2017,09,17,09,28,14.90
2017,09,17,09,29,15.00
2017,09,17,09,30,15.00
2017,09,17,09,31,15.00
2017,09,17,09,32,15.00
2017,09,17,09,33,15.00
2017,09,17,09,34,15.00
2017,09,17,09,35,15.10
2017,09,17,09,36,15.10
2017,09,17,09,37,15.10
2017,09,17,09,38,15.10
2017,09,17,09,39,15.10
2017,09,17,09,40,15.10
2017,09,17,09,41,15.10
2017,09,17,09,42,15.10
2017,09,17,09,43,15.20
2017,09,17,09,44,15.20
2017,09,17,09,45,15.20
2017,09,17,09,46,15.20
2017,09,17,09,47,15.20
2017,09,17,09,48,15.30
2017,09,17,09,49,15.30
2017,09,17,09,50,15.30
2017,09,17,09,51,15.30
2017,09,17,09,52,15.30
2017,09,17,09,53,15.30
2017,09,17,09,54,15.40
2017,09,17,09,55,15.40
2017,09,17,09,56,15.40
2017,09,17,09,57,15.40
2017,09,17,09,58,15.50
2017,09,17,09,59,15.50
2017,09,17,10,00,15.60
2017,09,17,10,01,15.60
2017,09,17,10,02,15.60
2017,09,17,10,03,15.60
2017,09,17,10,04,15.60
2017,09,17,10,05,15.60
2017,09,17,10,06,15.60
2017,09,17,10,07,15.60
2017,09,17,10,08,15.60
2017,09,17,10,09,15.50
2017,09,17,10,10,15.50
2017,09,17,10,11,15.40
2017,09,17,10,12,15.40
2017,09,17,10,13,15.40
2017,09,17,10,14,15.40
2017,09,17,10,15,15.30
2017,09,17,10,16,15.30
2017,09,17,10,17,15.30
2017,09,17,10,18,15.30
2017,09,17,10,19,15.30
2017,09,17,10,20,15.30
2017,09,17,10,21,15.40
2017,09,17,10,22,15.40
2017,09,17,10,23,15.40
2017,09,17,10,24,15.40
2017,09,17,10,25,15.40
2017,09,17,10,26,15.40
2017,09,17,10,27,15.40
2017,09,17,10,28,15.40
2017,09,17,10,29,15.30
2017,09,17,10,30,15.30
2017,09,17,10,31,15.30
2017,09,17,10,32,15.30
2017,09,17,10,33,15.30
2017,09,17,10,34,15.30
2017,09,17,10,35,15.30
2017,09,17,10,36,15.30
2017,09,17,10,37,15.30
2017,09,17,10,38,15.30
2017,09,17,10,39,15.30
2017,09,17,10,40,15.30
2017,09,17,10,41,15.30
2017,09,17,10,42,15.20
2017,09,17,10,43,15.20
2017,09,17,10,44,15.20
2017,09,17,10,45,15.20
2017,09,17,10,46,15.20
2017,09,17,10,47,15.20
2017,09,17,10,48,15.20
2017,09,17,10,49,15.20
2017,09,17,10,50,15.20
2017,09,17,10,51,15.20
2017,09,17,10,52,15.20
2017,09,17,10,53,15.20
2017,09,17,10,54,15.10
2017,09,17,10,55,15.10
2017,09,17,10,56,15.10
2017,09,17,10,57,15.10
2017,09,17,10,58,15.00
2017,09,17,10,59,15.00
2017,09,17,11,00,14.90
2017,09,17,11,01,14.90
2017,09,17,11,02,14.90
2017,09,17,11,03,14.80
2017,09,17,11,04,14.80
2017,09,17,11,05,14.80
2017,09,17,11,06,14.80
2017,09,17,11,07,14.80
2017,09,17,11,08,14.70
2017,09,17,11,09,14.70
2017,09,17,11,10,14.70
2017,09,17,11,11,14.70
2017,09,17,11,12,14.70
2017,09,17,11,13,14.70
2017,09,17,11,14,14.70
2017,09,17,11,15,14.70
2017,09,17,11,16,14.70
2017,09,17,11,17,14.70
2017,09,17,11,18,14.70
2017,09,17,11,19,14.70
2017,09,17,11,20,14.70
2017,09,17,11,21,14.70
2017,09,17,11,22,14.70
2017,09,17,11,23,14.70
2017,09,17,11,24,14.70
2017,09,17,11,25,14.70
2017,09,17,11,26,14.70
2017,09,17,11,27,14.60
2017,09,17,11,28,14.60
2017,09,17,11,29,14.60
2017,09,17,11,30,14.50
2017,09,17,11,31,14.50
2017,09,17,11,32,14.40
2017,09,17,11,33,14.40
2017,09,17,11,34,14.40
2017,09,17,11,35,14.30
2017,09,17,11,36,14.30
2017,09,17,11,37,14.20
2017,09,17,11,38,14.20
2017,09,17,11,39,14.20
2017,09,17,11,40,14.20
2017,09,17,11,41,14.20
2017,09,17,11,42,14.20
2017,09,17,11,43,14.20
2017,09,17,11,44,14.20
2017,09,17,11,45,14.20
2017,09,17,11,46,14.20
2017,09,17,11,47,14.10
2017,09,17,11,48,14.10
2017,09,17,11,49,14.10
2017,09,17,11,50,14.10
2017,09,17,11,51,14.10
2017,09,17,11,52,14.10
2017,09,17,11,53,14.10
2017,09,17,11,54,14.10
2017,09,17,11,55,14.10
2017,09,17,11,56,14.10
2017,09,17,11,57,14.10
2017,09,17,11,58,14.10
2017,09,17,11,59,14.00
2017,09,17,12,00,14.00
2017,09,17,12,01,14.00
2017,09,17,12,02,14.00
2017,09,17,12,03,13.90
2017,09,17,12,04,13.90
2017,09,17,12,05,13.90
2017,09,17,12,06,13.90
2017,09,17,12,07,13.90
2017,09,17,12,08,13.90
2017,09,17,12,09,13.90
2017,09,17,12,10,13.90
2017,09,17,12,11,13.90
2017,09,17,12,12,13.90
2017,09,17,12,13,13.90
2017,09,17,12,14,13.90
2017,09,17,12,15,13.90
2017,09,17,12,16,13.90
2017,09,17,12,17,13.90
2017,09,17,12,18,13.90
2017,09,17,12,19,13.90
2017,09,17,12,20,13.90
2017,09,17,12,21,13.90
2017,09,17,12,22,13.90
2017,09,17,12,23,13.80
2017,09,17,12,24,13.80
2017,09,17,12,25,13.80
2017,09,17,12,26,13.80
2017,09,17,12,27,13.80
2017,09,17,12,28,13.80
2017,09,17,12,29,13.80
2017,09,17,12,30,13.80
2017,09,17,12,31,13.80
2017,09,17,12,32,13.80
2017,09,17,12,33,13.70
2017,09,17,12,34,13.70
2017,09,17,12,35,13.70
2017,09,17,12,36,13.70
2017,09,17,12,37,13.70
2017,09,17,12,38,13.70
2017,09,17,12,39,13.70
2017,09,17,12,40,13.70
2017,09,17,12,41,13.70
2017,09,17,12,42,13.70
2017,09,17,12,43,13.70
2017,09,17,12,44,13.80
2017,09,17,12,45,13.80
2017,09,17,12,46,13.80
2017,09,17,12,47,13.80
2017,09,17,12,48,13.80
2017,09,17,12,49,13.80
2017,09,17,12,50,13.80
2017,09,17,12,51,13.80
2017,09,17,12,52,13.80
2017,09,17,12,53,13.80
2017,09,17,12,54,13.80
2017,09,17,12,55,13.80
2017,09,17,12,56,13.80
2017,09,17,12,57,13.80
2017,09,17,12,58,13.80
2017,09,17,12,59,13.80
2017,09,17,13,00,13.70
2017,09,17,13,01,13.70
2017,09,17,13,02,13.70
2017,09,17,13,03,13.70
2017,09,17,13,04,13.70
2017,09,17,13,05,13.70
2017,09,17,13,06,13.70
2017,09,17,13,07,13.70
2017,09,17,13,08,13.70
2017,09,17,13,09,13.70
2017,09,17,13,10,13.60
2017,09,17,13,11,13.60
2017,09,17,13,12,13.60
2017,09,17,13,13,13.60
2017,09,17,13,14,13.60
2017,09,17,13,15,13.50
2017,09,17,13,16,13.50
2017,09,17,13,17,13.50
2017,09,17,13,18,13.50
2017,09,17,13,19,13.50
2017,09,17,13,20,13.50
2017,09,17,13,21,13.50
2017,09,17,13,22,13.50
2017,09,17,13,23,13.40
2017,09,17,13,24,13.40
2017,09,17,13,25,13.40
2017,09,17,13,26,13.40
2017,09,17,13,27,13.40
2017,09,17,13,28,13.40
2017,09,17,13,29,13.40
2017,09,17,13,30,13.40
2017,09,17,13,31,13.40
2017,09,17,13,32,13.40
2017,09,17,13,33,13.40
2017,09,17,13,34,13.40
2017,09,17,13,35,13.40
2017,09,17,13,36,13.40
2017,09,17,13,37,13.30
2017,09,17,13,38,13.30
2017,09,17,13,39,13.30
2017,09,17,13,40,13.30
2017,09,17,13,41,13.30
2017,09,17,13,42,13.30
2017,09,17,13,43,13.30
2017,09,17,13,44,13.30
2017,09,17,13,45,13.30
2017,09,17,13,46,13.30
2017,09,17,13,47,13.30
2017,09,17,13,48,13.30
2017,09,17,13,49,13.30
2017,09,17,13,50,13.30
2017,09,17,13,51,13.30
2017,09,17,13,52,13.30
2017,09,17,13,53,13.30
2017,09,17,13,54,13.30
2017,09,17,13,55,13.30
2017,09,17,13,56,13.30
2017,09,17,13,57,13.30
2017,09,17,13,58,13.30
2017,09,17,13,59,13.20
2017,09,17,14,00,13.20
2017,09,17,14,01,13.20
2017,09,17,14,02,13.20
2017,09,17,14,03,13.20
2017,09,17,14,04,13.20
2017,09,17,14,05,13.20
2017,09,17,14,06,13.20
2017,09,17,14,07,13.20
2017,09,17,14,08,13.20
2017,09,17,14,09,13.20
2017,09,17,14,10,13.20
2017,09,17,14,11,13.20
2017,09,17,14,12,13.20
2017,09,17,14,13,13.20
2017,09,17,14,14,13.20
2017,09,17,14,15,13.20
2017,09,17,14,16,13.20
2017,09,17,14,17,13.20
2017,09,17,14,18,13.20
2017,09,17,14,19,13.20
2017,09,17,14,20,13.10
2017,09,17,14,21,13.10
2017,09,17,14,22,13.10
2017,09,17,14,23,13.10
2017,09,17,14,24,13.10
2017,09,17,14,25,13.00
2017,09,17,14,26,13.00
2017,09,17,14,27,13.00
2017,09,17,14,28,12.90
2017,09,17,14,29,12.90
2017,09,17,14,30,12.90
2017,09,17,14,31,12.90
2017,09,17,14,32,12.90
2017,09,17,14,33,12.90
2017,09,17,14,34,12.90
2017,09,17,14,35,12.90
2017,09,17,14,36,12.90
2017,09,17,14,37,13.00
2017,09,17,14,38,13.00
2017,09,17,14,39,13.00
2017,09,17,14,40,13.00
2017,09,17,14,41,13.00
2017,09,17,14,42,13.00
2017,09,17,14,43,13.00
2017,09,17,14,44,13.10
2017,09,17,14,45,13.10
2017,09,17,14,46,13.10
2017,09,17,14,47,13.10
2017,09,17,14,48,13.10
2017,09,17,14,49,13.10
2017,09,17,14,50,13.10
2017,09,17,14,51,13.10
2017,09,17,14,52,13.10
2017,09,17,14,53,13.10
2017,09,17,14,54,13.10
2017,09,17,14,55,13.10
2017,09,17,14,56,13.10
2017,09,17,14,57,13.10
2017,09,17,14,58,13.10
2017,09,17,14,59,13.10
2017,09,17,15,00,13.10
2017,09,17,15,01,13.20
2017,09,17,15,02,13.20
2017,09,17,15,03,13.20
2017,09,17,15,04,13.20
2017,09,17,15,05,13.20
2017,09,17,15,06,13.30
2017,09,17,15,07,13.30
2017,09,17,15,08,13.30
2017,09,17,15,09,13.30
2017,09,17,15,10,13.30
2017,09,17,15,11,13.30
2017,09,17,15,12,13.30
2017,09,17,15,13,13.30
2017,09,17,15,14,13.30
2017,09,17,15,15,13.40
2017,09,17,15,16,13.40
2017,09,17,15,17,13.40
2017,09,17,15,18,13.40
2017,09,17,15,19,13.40
2017,09,17,15,20,13.40
2017,09,17,15,21,13.40
2017,09,17,15,22,13.40
2017,09,17,15,23,13.50
2017,09,17,15,24,13.50
2017,09,17,15,25,13.50
2017,09,17,15,26,13.50
2017,09,17,15,27,13.60
2017,09,17,15,28,13.60
2017,09,17,15,29,13.60
2017,09,17,15,30,13.70
2017,09,17,15,31,13.70
2017,09,17,15,32,13.70
2017,09,17,15,33,13.80
2017,09,17,15,34,13.80
2017,09,17,15,35,13.90
2017,09,17,15,36,13.90
2017,09,17,15,37,13.90
2017,09,17,15,38,13.90
2017,09,17,15,39,13.90
2017,09,17,15,40,13.80
2017,09,17,15,41,13.80
2017,09,17,15,42,13.80
2017,09,17,15,43,13.80
2017,09,17,15,44,13.80
2017,09,17,15,45,13.80
2017,09,17,15,46,13.80
2017,09,17,15,47,13.80
2017,09,17,15,48,13.90
2017,09,17,15,49,13.90
2017,09,17,15,50,13.90
2017,09,17,15,51,13.90
2017,09,17,15,52,13.90
2017,09,17,15,53,13.90
2017,09,17,15,54,13.80
2017,09,17,15,55,13.80
2017,09,17,15,56,13.80
2017,09,17,15,57,13.80
2017,09,17,15,58,13.90
2017,09,17,15,59,13.90
2017,09,17,16,00,13.90
2017,09,17,16,01,13.90
2017,09,17,16,02,13.90
2017,09,17,16,03,13.90
2017,09,17,16,04,13.90
2017,09,17,16,05,13.90
2017,09,17,16,06,14.00
2017,09,17,16,07,14.00
2017,09,17,16,08,14.10
2017,09,17,16,09,14.10
2017,09,17,16,10,14.10
2017,09,17,16,11,14.10
2017,09,17,16,12,14.10
2017,09,17,16,13,14.10
2017,09,17,16,14,14.10
2017,09,17,16,15,14.10
2017,09,17,16,16,14.10
2017,09,17,16,17,14.10
2017,09,17,16,18,14.10
2017,09,17,16,19,14.10
2017,09,17,16,20,14.10
2017,09,17,16,21,14.10
2017,09,17,16,22,14.10
2017,09,17,16,23,14.10
2017,09,17,16,24,14.10
2017,09,17,16,25,14.20
2017,09,17,16,26,14.20
2017,09,17,16,27,14.20
2017,09,17,16,28,14.30
2017,09,17,16,29,14.30
2017,09,17,16,30,14.30
2017,09,17,16,31,14.30
2017,09,17,16,32,14.30
2017,09,17,16,33,14.40
2017,09,17,16,34,14.40
2017,09,17,16,35,14.40
2017,09,17,16,36,14.40
2017,09,17,16,37,14.50
2017,09,17,16,38,14.50
2017,09,17,16,39,14.50
2017,09,17,16,40,14.60
2017,09,17,16,41,14.60
2017,09,17,16,42,14.60
2017,09,17,16,43,14.60
2017,09,17,16,44,14.60
2017,09,17,16,45,14.60
2017,09,17,16,46,14.70
2017,09,17,16,47,14.70
2017,09,17,16,48,14.70
2017,09,17,16,49,14.70
2017,09,17,16,50,14.70
2017,09,17,16,51,14.80
2017,09,17,16,52,14.80
2017,09,17,16,53,14.80
2017,09,17,16,54,14.90
2017,09,17,16,55,14.90
2017,09,17,16,56,14.90
2017,09,17,16,57,14.90
2017,09,17,16,58,14.90
2017,09,17,16,59,14.90
2017,09,17,17,00,14.80
2017,09,17,17,01,14.80
2017,09,17,17,02,14.80
2017,09,17,17,03,14.80
2017,09,17,17,04,14.80
2017,09,17,17,05,14.80
2017,09,17,17,06,14.80
2017,09,17,17,07,14.80
2017,09,17,17,08,14.70
2017,09,17,17,09,14.70
2017,09,17,17,10,14.60
2017,09,17,17,11,14.60
2017,09,17,17,12,14.60
2017,09,17,17,13,14.50
2017,09,17,17,14,14.50
2017,09,17,17,15,14.50
2017,09,17,17,16,14.40
2017,09,17,17,17,14.40
2017,09,17,17,18,14.40
2017,09,17,17,19,14.40